Showing default

CYGFM08, 41888

Orbit data source: Space-Track

CYGFM08, 41888 is an American payload satellite in LEO that was launched on Thu, 15 Dec 2016 UTC via a PEGASUS XL launch vehicle from the Pegasus Launch, Eastern Range Air Space (ERAS). Payloads include a variety of satellites, spacecraft, and rockets equipped with specific instruments for various scientific and technological missions. These include communications satellites like Starlink; space stations such as the ISS; scientific satellites like the Hubble; Earth observation satellites from companies like Planet Labs, Umbra, and HawkEye 360; GPS; miniature CubeSats for education and research; and military/defense satellites.

Loading next visibility...
CYGFM08 details
Identifier
41888, 2016-078E
Orbit
LEO
Last TLE update22 hours ago
Origin
Flag of USLARCN/SWRIB (US)
ManufacturerSST-US
MissionExtended mission Civil Science
Bus & MotorCYGNSS, Unknown motor
Mass29 kg wet, 29 kg dry
Launch date (UTC)
2016-12-15 (8 years ago)
Launch vehicle
PEGASUS XL
Launch site
Pegasus Launch, Eastern Range Air Space (ERAS)
Object type
Payload
Rocket body
Debris
Shape & HBRHalf Hex Cyl + 2 Pan, 1.7 m
Radar Cross Section0.450 m², Medium (>0.1 m² and < 1m²)

Expand to show TLE details & history

TLE from 22 hours ago
0 CYGFM08
1 41888U 16078E   24360.85699329  .00022046  00000-0  62793-3 0  9991
2 41888  34.9467 152.0643 0011056 156.0162 204.1072 15.35115300445585
Epoch: 2024-12-25T20:34Z
Definitive object data (Epoch: 2024-12-25T20:34:04.22Z)
Latitude-0.00002°
Longitude108.70197°
Altitude466.375 km
Speed7.632 km/s
True Right ascension10h 08m 15s
True Declination0° 00' 00"
Sunlit
Object was in full shadow at TLE epoch
Visualization TLE readout
Latitude-14.46873°
Longitude81.35239°
Altitude469.771 km
Speed7.629 km/s
Apparent Right ascension07h 12m 13s
Apparent Declination-27° 58' 10"
Sunlit
Object is in full shadow
Visualization observer readout
Local Sidereal Time17:40:53
Azimuth295.378° NW
Elevation-67.706°
Doppler factor1
Orbital elements
Apogee altitude471.418 km
Perigee altitude456.289 km
Semi-major axis6,841.991 km
Eccentricity0.0011056
Inclination34.9467°
RAAN152.0643°
Arg. of periapsis156.0162°
True anomaly204.05552°
Mean anomaly204.1072°
Eccentric anomaly204.08135°
Mean motion3.83504 °/min
BSTAR0.00062793
Orbital period93.87 mins
Loading maneuver chart data...
Loading historical data...
Loading historical data...
Loading historical data...
Loading historical data...
Loading historical data...
Loading historical data...
Loading historical data...

CYGFM08 Visibility forecast

Observer location: undefined°, undefined

Span
Click to sort rows by Start time (UTC) header in descending order
Start Az.
Max El. time (UTC)
Max El. Az.
Max El.
End time (UTC)
End Az.
5 mins2024-12-27 15:01:24.794Z221.769° SW2024-12-27 15:03:24.794Z165.268° S28.156°2024-12-27 15:06:24.794Z107.737° ESE
4 mins2024-12-27 16:40:24.794Z231.747° WSW2024-12-27 16:41:24.794Z204.69° SW27.849°2024-12-27 16:44:24.794Z127.617° SE
|